IBE446 LESO-LEMD

Flight info

Callsign IBE446
Flight time 0h 48m
Altitude 33000
Route PPN N857 BANEV
Aircraft A320/M-SDE3FGHIRWY/LB1

Departure

Time 2026-04-18 05:22
Airport San Sebastián Airport (LESO)

Arrival

Time 2026-04-18 06:10
Airport Adolfo Suárez Madrid–Barajas Airport (LEMD)
Time Latitude Longitude Altitude Speed Heading
2026-04-18 05:13 43.35600 -1.79271 17 ft 0 kts 39°
2026-04-18 05:18 43.35602 -1.79266 17 ft 0 kts 62°
2026-04-18 05:19 43.35600 -1.79262 17 ft 0 kts 94°
2026-04-18 05:19 43.35592 -1.79259 -8 ft 3 kts 159°
2026-04-18 05:19 43.35577 -1.79270 36 ft 3 kts 223°
2026-04-18 05:19 43.35546 -1.79276 17 ft 5 kts 165°
2026-04-18 05:20 43.35517 -1.79245 20 ft 7 kts 142°
2026-04-18 05:20 43.35468 -1.79262 19 ft 10 kts 218°
2026-04-18 05:20 43.35405 -1.79331 21 ft 13 kts 218°
2026-04-18 05:20 43.35320 -1.79424 20 ft 18 kts 219°
2026-04-18 05:21 43.35250 -1.79503 21 ft 21 kts 221°
2026-04-18 05:21 43.35124 -1.79644 19 ft 23 kts 219°
2026-04-18 05:21 43.35048 -1.79732 20 ft 2 kts 127°
2026-04-18 05:21 43.35058 -1.79711 20 ft 5 kts 49°
2026-04-18 05:22 43.35101 -1.79665 19 ft 23 kts 41°
2026-04-18 05:22 43.35599 -1.79117 18 ft 121 kts 39°
2026-04-18 05:22 43.36119 -1.78545 58 ft 159 kts 38°
2026-04-18 05:22 43.37014 -1.77579 680 ft 169 kts 33°
2026-04-18 05:23 43.38053 -1.76784 1539 ft 173 kts 27°
2026-04-18 05:23 43.39158 -1.76034 2212 ft 183 kts 25°
2026-04-18 05:23 43.40369 -1.75228 2575 ft 203 kts 25°
2026-04-18 05:23 43.41694 -1.74439 3173 ft 211 kts 12°
2026-04-18 05:24 43.43138 -1.74713 3825 ft 218 kts 330°
2026-04-18 05:24 43.44104 -1.76302 4486 ft 223 kts 289°
2026-04-18 05:24 43.44487 -1.78389 5170 ft 226 kts 279°
2026-04-18 05:24 43.44744 -1.80532 5988 ft 227 kts 277°
2026-04-18 05:25 43.44981 -1.82685 6812 ft 228 kts 277°
2026-04-18 05:25 43.45223 -1.84810 7590 ft 228 kts 277°
2026-04-18 05:25 43.45486 -1.86977 8397 ft 229 kts 278°
2026-04-18 05:25 43.45762 -1.89140 9191 ft 230 kts 278°
2026-04-18 05:26 43.46050 -1.91308 10026 ft 231 kts 278°
2026-04-18 05:26 43.46347 -1.93487 10754 ft 233 kts 278°
2026-04-18 05:26 43.46647 -1.95692 11484 ft 235 kts 276°
2026-04-18 05:26 43.46572 -1.97892 12178 ft 235 kts 251°
2026-04-18 05:27 43.45751 -1.99823 12887 ft 238 kts 225°
2026-04-18 05:27 43.44351 -2.01061 13605 ft 243 kts 207°
2026-04-18 05:27 43.42810 -2.02052 14298 ft 246 kts 207°
2026-04-18 05:27 43.41250 -2.03053 14957 ft 248 kts 207°
2026-04-18 05:28 43.39674 -2.04066 15603 ft 251 kts 207°
2026-04-18 05:28 43.38085 -2.05092 16271 ft 253 kts 207°
2026-04-18 05:28 43.36489 -2.06125 16940 ft 254 kts 207°
2026-04-18 05:28 43.34879 -2.07167 17608 ft 256 kts 207°
2026-04-18 05:29 43.33178 -2.07931 18255 ft 263 kts 185°
2026-04-18 05:29 43.31380 -2.07379 18826 ft 275 kts 152°
2026-04-18 05:29 43.30036 -2.05472 19338 ft 287 kts 121°
2026-04-18 05:29 43.29161 -2.03026 19857 ft 291 kts 120°
2026-04-18 05:30 43.28050 -2.00717 20388 ft 289 kts 136°
2026-04-18 05:30 43.26653 -1.98727 20941 ft 289 kts 141°
2026-04-18 05:30 43.25159 -1.96869 21491 ft 291 kts 144°
2026-04-18 05:30 43.23534 -1.95222 21949 ft 294 kts 153°
2026-04-18 05:31 43.21731 -1.93717 22072 ft 313 kts 153°
2026-04-18 05:31 43.19822 -1.92123 22205 ft 331 kts 153°
2026-04-18 05:31 43.17811 -1.90427 22331 ft 347 kts 152°
2026-04-18 05:31 43.15709 -1.88634 22466 ft 363 kts 152°
2026-04-18 05:32 43.13527 -1.86759 22611 ft 378 kts 151°
2026-04-18 05:32 43.11260 -1.84804 22753 ft 391 kts 151°
2026-04-18 05:32 43.08922 -1.82785 22972 ft 402 kts 151°
2026-04-18 05:32 43.06569 -1.80753 23379 ft 407 kts 151°
2026-04-18 05:33 43.04162 -1.78684 23845 ft 410 kts 152°
2026-04-18 05:33 43.01617 -1.76925 24240 ft 408 kts 162°
2026-04-18 05:33 42.98902 -1.75842 24642 ft 405 kts 173°
2026-04-18 05:33 42.96118 -1.75225 25053 ft 407 kts 174°
2026-04-18 05:34 42.93310 -1.74615 25456 ft 409 kts 174°
2026-04-18 05:34 42.90520 -1.74004 25847 ft 411 kts 174°
2026-04-18 05:34 42.87691 -1.73377 26236 ft 413 kts 174°
2026-04-18 05:34 42.84837 -1.72740 26626 ft 416 kts 174°
2026-04-18 05:35 42.81976 -1.72103 27001 ft 418 kts 174°
2026-04-18 05:35 42.79094 -1.71461 27381 ft 420 kts 174°
2026-04-18 05:35 42.76189 -1.71080 27748 ft 419 kts 183°
2026-04-18 05:35 42.73291 -1.71379 28111 ft 417 kts 193°
2026-04-18 05:36 42.70482 -1.72353 28481 ft 416 kts 202°
2026-04-18 05:36 42.67839 -1.73933 28854 ft 416 kts 209°
2026-04-18 05:36 42.65239 -1.75695 29215 ft 418 kts 208°
2026-04-18 05:36 42.62628 -1.77452 29561 ft 420 kts 208°
2026-04-18 05:37 42.59996 -1.79220 29898 ft 422 kts 208°
2026-04-18 05:37 42.57349 -1.80995 30216 ft 424 kts 208°
2026-04-18 05:37 42.54735 -1.82749 30486 ft 426 kts 208°
2026-04-18 05:37 42.52059 -1.84542 30755 ft 428 kts 208°
2026-04-18 05:38 42.49379 -1.86333 31011 ft 430 kts 208°
2026-04-18 05:38 42.46693 -1.88124 31280 ft 431 kts 208°
2026-04-18 05:38 42.43995 -1.89924 31584 ft 432 kts 208°
2026-04-18 05:38 42.41307 -1.91714 31973 ft 430 kts 208°
2026-04-18 05:39 42.38614 -1.93501 32350 ft 429 kts 208°
2026-04-18 05:39 42.35929 -1.95279 32725 ft 428 kts 208°
2026-04-18 05:39 42.33289 -1.97029 33084 ft 428 kts 208°
2026-04-18 05:39 42.30619 -1.98801 33191 ft 424 kts 208°
2026-04-18 05:40 42.25409 -2.02265 33202 ft 413 kts 209°
2026-04-18 05:40 42.20256 -2.05693 33202 ft 412 kts 208°
2026-04-18 05:41 42.15100 -2.09095 33202 ft 412 kts 208°
2026-04-18 05:41 42.09975 -2.12478 33200 ft 412 kts 208°
2026-04-18 05:42 42.04819 -2.15884 33204 ft 412 kts 208°
2026-04-18 05:42 41.99667 -2.19278 33204 ft 412 kts 208°
2026-04-18 05:43 41.94513 -2.22653 33185 ft 412 kts 208°
2026-04-18 05:43 41.89375 -2.26017 33189 ft 412 kts 208°
2026-04-18 05:44 41.84215 -2.29390 33197 ft 412 kts 208°
2026-04-18 05:44 41.79057 -2.32759 33199 ft 412 kts 208°
2026-04-18 05:45 41.73896 -2.36120 33195 ft 412 kts 208°
2026-04-18 05:45 41.68731 -2.39479 33196 ft 412 kts 208°
2026-04-18 05:46 41.63566 -2.42840 33197 ft 412 kts 208°
2026-04-18 05:46 41.58402 -2.46187 33183 ft 413 kts 208°
2026-04-18 05:47 41.55807 -2.47867 32618 ft 414 kts 208°
2026-04-18 05:47 41.53260 -2.49512 32063 ft 410 kts 208°
2026-04-18 05:47 41.50695 -2.51164 31511 ft 407 kts 208°
2026-04-18 05:47 41.48146 -2.52808 30949 ft 404 kts 208°
2026-04-18 05:48 41.45623 -2.54436 30405 ft 401 kts 207°
2026-04-18 05:48 41.43122 -2.56051 29803 ft 398 kts 207°
2026-04-18 05:48 41.40642 -2.57651 29273 ft 394 kts 207°
2026-04-18 05:48 41.38180 -2.59234 28725 ft 389 kts 207°
2026-04-18 05:49 41.35778 -2.60773 28231 ft 385 kts 207°
2026-04-18 05:49 41.33282 -2.62022 27711 ft 383 kts 197°
2026-04-18 05:49 41.30648 -2.62633 27205 ft 382 kts 186°
2026-04-18 05:49 41.27999 -2.62598 26725 ft 380 kts 178°
2026-04-18 05:50 41.25369 -2.62352 26242 ft 377 kts 178°
2026-04-18 05:50 41.22757 -2.62112 25776 ft 374 kts 178°
2026-04-18 05:50 41.20174 -2.61881 25323 ft 370 kts 178°
2026-04-18 05:50 41.17609 -2.61654 24870 ft 368 kts 178°
2026-04-18 05:51 41.15060 -2.61430 24419 ft 365 kts 178°
2026-04-18 05:51 41.12559 -2.61209 23973 ft 363 kts 178°
2026-04-18 05:51 41.10044 -2.60986 23461 ft 361 kts 178°
2026-04-18 05:51 41.07538 -2.60764 22990 ft 358 kts 178°
2026-04-18 05:52 41.05062 -2.60545 22529 ft 355 kts 178°
2026-04-18 05:52 41.02597 -2.60326 22071 ft 353 kts 178°
2026-04-18 05:52 41.00151 -2.60105 21601 ft 352 kts 178°
2026-04-18 05:52 40.97706 -2.59884 21137 ft 351 kts 178°
2026-04-18 05:53 40.95271 -2.59667 20606 ft 358 kts 177°
2026-04-18 05:53 40.92785 -2.59449 20070 ft 358 kts 177°
2026-04-18 05:53 40.90289 -2.59231 19535 ft 359 kts 177°
2026-04-18 05:53 40.87782 -2.59011 18993 ft 360 kts 177°
2026-04-18 05:54 40.85280 -2.59133 18459 ft 360 kts 190°
2026-04-18 05:54 40.82879 -2.60052 17871 ft 360 kts 204°
2026-04-18 05:54 40.80731 -2.61715 17345 ft 358 kts 218°
2026-04-18 05:54 40.78921 -2.63958 16819 ft 357 kts 226°
2026-04-18 05:55 40.77208 -2.66268 16298 ft 356 kts 226°
2026-04-18 05:55 40.75468 -2.68597 15773 ft 356 kts 226°
2026-04-18 05:55 40.73718 -2.70929 15247 ft 356 kts 226°
2026-04-18 05:55 40.71965 -2.73258 14723 ft 356 kts 226°
2026-04-18 05:56 40.70239 -2.75545 14541 ft 345 kts 226°
2026-04-18 05:56 40.68577 -2.77747 14419 ft 333 kts 226°
2026-04-18 05:56 40.66987 -2.79857 14309 ft 323 kts 226°
2026-04-18 05:56 40.65388 -2.81812 14180 ft 304 kts 217°
2026-04-18 05:57 40.61987 -2.84603 13710 ft 277 kts 213°
2026-04-18 05:57 40.60346 -2.85924 13426 ft 275 kts 213°
2026-04-18 05:57 40.58723 -2.87233 13152 ft 273 kts 213°
2026-04-18 05:58 40.57111 -2.88532 12899 ft 270 kts 213°
2026-04-18 05:58 40.55510 -2.89822 12571 ft 271 kts 212°
2026-04-18 05:58 40.53925 -2.91098 12295 ft 269 kts 212°
2026-04-18 05:58 40.52336 -2.92375 12036 ft 267 kts 212°
2026-04-18 05:59 40.50754 -2.93649 11786 ft 264 kts 212°
2026-04-18 05:59 40.49193 -2.94907 11552 ft 262 kts 212°
2026-04-18 05:59 40.47644 -2.96158 11319 ft 260 kts 212°
2026-04-18 05:59 40.46105 -2.97398 11089 ft 259 kts 212°
2026-04-18 06:00 40.44568 -2.98631 10852 ft 257 kts 212°
2026-04-18 06:00 40.43042 -2.99851 10629 ft 256 kts 212°
2026-04-18 06:00 40.41545 -3.01048 10407 ft 255 kts 212°
2026-04-18 06:00 40.40032 -3.02257 10176 ft 253 kts 212°
2026-04-18 06:01 40.38530 -3.03458 9932 ft 252 kts 212°
2026-04-18 06:01 40.37033 -3.04653 9697 ft 252 kts 212°
2026-04-18 06:01 40.35535 -3.05851 9452 ft 250 kts 212°
2026-04-18 06:01 40.34054 -3.07036 9228 ft 249 kts 211°
2026-04-18 06:02 40.32592 -3.08202 9005 ft 248 kts 212°
2026-04-18 06:02 40.31123 -3.09373 8780 ft 247 kts 212°
2026-04-18 06:02 40.29651 -3.10546 8561 ft 247 kts 211°
2026-04-18 06:02 40.28185 -3.11721 8334 ft 247 kts 214°
2026-04-18 06:03 40.26971 -3.13276 8109 ft 246 kts 237°
2026-04-18 06:03 40.26325 -3.15326 7880 ft 245 kts 260°
2026-04-18 06:03 40.26332 -3.17546 7642 ft 245 kts 279°
2026-04-18 06:03 40.26632 -3.19747 7404 ft 245 kts 279°
2026-04-18 06:04 40.26926 -3.21947 7165 ft 245 kts 279°
2026-04-18 06:04 40.27217 -3.24147 6924 ft 244 kts 279°
2026-04-18 06:04 40.27499 -3.26305 6685 ft 243 kts 279°
2026-04-18 06:04 40.27785 -3.28493 6440 ft 243 kts 279°
2026-04-18 06:05 40.28071 -3.30676 6213 ft 243 kts 279°
2026-04-18 06:05 40.28404 -3.32841 5976 ft 243 kts 287°
2026-04-18 06:05 40.28996 -3.34956 5472 ft 250 kts 290°
2026-04-18 06:05 40.29601 -3.37030 5391 ft 237 kts 290°
2026-04-18 06:06 40.29989 -3.38347 5340 ft 233 kts 290°
2026-04-18 06:06 40.31263 -3.40574 5123 ft 232 kts 321°
2026-04-18 06:06 40.32529 -3.41824 4914 ft 229 kts 323°
2026-04-18 06:06 40.33824 -3.43024 4696 ft 226 kts 327°
2026-04-18 06:07 40.35126 -3.44137 4551 ft 219 kts 325°
2026-04-18 06:07 40.35936 -3.44903 4446 ft 215 kts 323°
2026-04-18 06:07 40.37102 -3.46065 4221 ft 204 kts 322°
2026-04-18 06:07 40.38195 -3.47169 3953 ft 191 kts 323°
2026-04-18 06:08 40.39213 -3.48201 3721 ft 178 kts 323°
2026-04-18 06:08 40.40169 -3.49168 3493 ft 169 kts 323°
2026-04-18 06:08 40.41064 -3.50074 3285 ft 158 kts 323°
2026-04-18 06:08 40.41921 -3.50942 3075 ft 154 kts 323°
2026-04-18 06:09 40.42747 -3.51776 2863 ft 148 kts 323°
2026-04-18 06:09 40.43549 -3.52595 2665 ft 145 kts 323°
2026-04-18 06:09 40.44345 -3.53391 2444 ft 143 kts 324°
2026-04-18 06:09 40.45129 -3.54193 2272 ft 142 kts 323°
2026-04-18 06:10 40.45911 -3.54989 2081 ft 141 kts 324°
2026-04-18 06:10 40.46689 -3.55774 1977 ft 138 kts 325°
2026-04-18 06:10 40.47344 -3.56428 1988 ft 97 kts 321°
2026-04-18 06:10 40.47721 -3.56813 1995 ft 48 kts 322°
2026-04-18 06:11 40.47955 -3.57057 2001 ft 40 kts 321°
2026-04-18 06:11 40.48118 -3.57274 2005 ft 22 kts 300°
2026-04-18 06:11 40.48168 -3.57407 2002 ft 18 kts 296°
2026-04-18 06:11 40.48228 -3.57570 1998 ft 22 kts 296°
2026-04-18 06:12 40.48335 -3.57716 1994 ft 24 kts 323°
2026-04-18 06:12 40.48479 -3.57836 1991 ft 25 kts 329°
2026-04-18 06:12 40.48512 -3.57936 1997 ft 9 kts 270°
2026-04-18 06:12 40.48512 -3.57993 2000 ft 4 kts 270°
2026-04-18 06:13 40.48512 -3.58037 2002 ft 9 kts 269°
2026-04-18 06:13 40.48512 -3.58176 2007 ft 17 kts 270°
2026-04-18 06:13 40.48511 -3.58322 2013 ft 15 kts 269°
2026-04-18 06:13 40.48510 -3.58447 2016 ft 12 kts 269°
2026-04-18 06:14 40.48510 -3.58536 2017 ft 7 kts 270°
2026-04-18 06:14 40.48510 -3.58580 2028 ft 3 kts 270°
2026-04-18 06:14 40.48510 -3.58615 2022 ft 10 kts 270°
2026-04-18 06:14 40.48513 -3.58760 2022 ft 17 kts 283°
2026-04-18 06:15 40.48620 -3.58810 2027 ft 18 kts 360°
2026-04-18 06:15 40.48745 -3.58816 2026 ft 15 kts 339°
2026-04-18 06:15 40.48761 -3.58916 2022 ft 10 kts 269°
2026-04-18 06:15 40.48761 -3.58956 2022 ft 0 kts 270°